Tracking 31027 objects as of 19-Jul-2025
HD Live streaming from Space Station
objects crossing your sky now

FENGYUN 1C DEB

Track FENGYUN 1C DEB now!
10-day predictions


NORAD ID: 35244
Int'l Code: 1999-025DRC
Perigee: 827.9 km
Apogee: 930.7 km
Inclination: 98.9 °
Period: 102.4 minutes
Semi major axis: 7250 km
RCS: 0.0028 m2 (small)
Launch date: May 10, 1999
Source: People's Republic of China (PRC)
Launch site: Taiyaun Space Center, China (TSC)

Note: This is SATELLITE DEBRIS
Your satellite tracking list
STARLINK-5129
Track 1 satellite(s)




NASA's NSSDC Master Catalog

Two Line Element Set (TLE):
1 35244U 99025DRC 25193.90183141  .00000797  00000-0  49861-3 0  9994
2 35244  98.8573 237.4894 0070906 225.5145 134.0213 14.06281436861175
Source of the keplerian elements: AFSPC